Regional Weather Roundup
Issued by NWS

Home | Current Version | Previous Version | Graphics & Text | Print | Product List | Glossary On
Versions: 1 2 3 4 5 6 7 8 9 10 11 12 13 14 15 16 17 18 19 20 21 22 23 24 25 26 27 28 29 30 31 32 33 34 35 36 37 38 39 40 41 42 43 44 45 46 47 48 49 50
000
ASUS43 KBIS 231010
RWRND

NORTH DAKOTA REGIONAL WEATHER ROUNDUP
NATIONAL WEATHER SERVICE BISMARCK ND
400 AM CST SUN NOV 23 2014

NOTE: "FAIR" INDICATES FEW OR NO CLOUDS BELOW 12,000 FEET WITH NO
SIGNIFICANT WEATHER AND/OR OBSTRUCTIONS TO VISIBILITY.


NDZ001>003-009>011-017-231100-
NORTHWEST NORTH DAKOTA

CITY           SKY/WX    TMP DP  RH WIND       PRES   REMARKS
WILLISTON      CLOUDY    33  23  66 W23G37    29.40R
MINOT          CLOUDY    40  31  70 SW10      29.31R
MINOT AFB      CLOUDY    40  34  80 W10       29.30R
$$

NDZ018>021-031>035-040>046-231100-
SOUTHWEST NORTH DAKOTA

CITY           SKY/WX    TMP DP  RH WIND       PRES   REMARKS
BISMARCK       CLOUDY    38  33  82 W9        29.44R
DICKINSON      CLOUDY    36  30  79 W22G29    29.43R
GARRISON         N/A     40  32  73 W17G28    29.35S
HETTINGER ARPT MOCLDY    34  29  82 W17       29.50S
$$

NDZ004>008-012>016-024-026-027-054-231100-
NORTHEAST NORTH DAKOTA

CITY           SKY/WX    TMP DP  RH WIND       PRES   REMARKS
GRAND FORKS    CLOUDY    32  30  93 S6        29.34F FOG
GRND FRKS AFB  CLOUDY    31  31  99 S7        29.34F
DEVILS LAKE    CLOUDY    37  27  65 SW13      29.32S
$$

NDZ022-023-025-028>030-036>039-047>053-231100-
SOUTHEAST NORTH DAKOTA

CITY           SKY/WX    TMP DP  RH WIND       PRES   REMARKS
FARGO          CLOUDY    33  31  92 S6        29.39S FOG
JAMESTOWN      LGT RAIN  39  34  82 W9        29.40R
$$



USA.gov is the U.S. government's official web portal to all federal, state and local government web resources and services.